Location: Ostrava
(49.8330°N, 18.2830°E)
Time: 09:43:29
(UTC+02:00)

ISS - Pass Details

Date: 18 May 2021
Orbit: 417 x 422 km, 51.6° (Epoch: 13 June)

Event Time Altitude Azimuth Distance (km) Brightness Sun altitude
Rises 22:53:45 0° 267° (W) 2,363 0.4 -16.3°
Reaches altitude 10° 22:55:51 10° 270° (W) 1,501 -0.6 -16.5°
Maximum altitude 22:59:12 65° 353° (N) 468 -3.4 -16.7°
Drops below altitude 10° 23:02:34 10° 77° (ENE) 1,506 -1.1 -16.9°
Enters shadow 23:03:32 - 79° (ENE) 1,897 -0.6 -17.0°
